Regional Weather Roundup
Issued by NWS

Home | Current Version | Previous Version | Text Only | Print | Product List | Glossary On
Versions: 1 2 3 4 5 6 7 8 9 10 11 12 13 14 15 16 17 18 19 20 21 22 23 24 25 26 27 28 29 30 31 32 33 34 35 36 37 38 39 40 41 42 43 44 45 46 47 48 49 50
000
ASUS45 KREV 302110
RWRNV
NEVADA REGIONAL WEATHER ROUNDUP
NATIONAL WEATHER SERVICE RENO NV
200 PM PDT TUE JUN 30 2015

NOTE: "FAIR" INDICATES FEW OR NO CLOUDS BELOW 12,000 FEET WITH NO
SIGNIFICANT WEATHER AND/OR OBSTRUCTIONS TO VISIBILITY.

NVZ001-003-004-302200-
WESTERN NEVADA

CITY           SKY/WX    TMP DP  RH WIND       PRES   REMARKS
RENO           PTSUNNY   99  43  14 S8G23     30.07F
CARSON CITY    FAIR      95  41  15 E6        30.11F
MINDEN         FAIR      93  46  20 S6        30.11F
SLIDE MTN        N/A     70  46  43 W10         N/A
PYRAMID LAKE     N/A     88 N/A N/A N7          N/A
FALLON         PTSUNNY   99  38  12 W8        30.04F
LOVELOCK       SUNNY     98  45  16 CALM      30.03F
HAWTHORNE      SUNNY     97  43  15 NW8       30.05F
$$

NVZ002-CAZ072-073-302200-
NORTHERN AND CENTRAL SIERRA

CITY           SKY/WX    TMP DP  RH WIND       PRES   REMARKS
S. LAKE TAHOE  MOSUNNY   83  52  34 NE7       30.25F
TRUCKEE        MOSUNNY   90  46  22 SW10      30.23F
SQUAW VLY 8000 NOT AVBL
SUSANVILLE     SUNNY     95  39  14 N6        30.08F
BLUE CANYON    SUNNY     85  51  31 S6        30.21F
MAMMOTH LAKES  PTSUNNY   81  39  22 NW3       30.32S
BRIDGEPORT     FAIR      90  45  21 SW13G18   30.26F
$$

NVZ030-031-036-302200-
NORTHERN NEVADA

CITY           SKY/WX    TMP DP  RH WIND       PRES   REMARKS
ELKO           MOSUNNY   97  43  15 SW14      30.09F
WINNEMUCCA       N/A    100  40  12 W16       30.05
WENDOVER       MOSUNNY  100  45  15 E13       30.02F
$$

NVZ035-037-302200-
CENTRAL NEVADA

CITY           SKY/WX    TMP DP  RH WIND       PRES   REMARKS
ELY            CLOUDY    84  49  29 NW10      30.21R
EUREKA           N/A     87  51  28 W6        30.18F
$$

NVZ013-014-302200-
SOUTH CENTRAL NEVADA

CITY           SKY/WX    TMP DP  RH WIND       PRES   REMARKS
TONOPAH        MOSUNNY   94  41  16 S9G18     30.16F
$$

NVZ017-020-022-302200-
SOUTHERN NEVADA

CITY           SKY/WX    TMP DP  RH WIND       PRES   REMARKS
LAS VEGAS      MOSUNNY  109  46  12 S12       29.80F HX 105
N. LAS VEGAS   SUNNY    108  49  14 CALM      29.84F
NELLIS AFB     SUNNY    108  50  14 S10       29.80F
HENDERSON      MOSUNNY  107  52  16 VRB7      29.88F HX 105
MERCURY        MOSUNNY  103  42  12 VRB5      29.95F
$$



USA.gov is the U.S. government's official web portal to all federal, state and local government web resources and services.